This is the latest recevied weather packets stored in our database for station/object G4AAX-10. If no packets are shown the sender has not sent any weather packets the latest 10 day(s).
| Time | Temp. | Humidity | Pressure | Rain* | Wind** | Luminosity | Snow |
|---|---|---|---|---|---|---|---|
| 1777497208 | 20° C | 43% | 1033.1 hPa | - | - | - | - |
| 1777495408 | 20° C | 43% | 1032.9 hPa | - | - | - | - |
| 1777493608 | 20.56° C | 43% | 1032.9 hPa | - | - | - | - |
| 1777491808 | 20.56° C | 43% | 1033.2 hPa | - | - | - | - |
| 1777490007 | 20.56° C | 43% | 1033.1 hPa | - | - | - | - |
| 1777488207 | 20.56° C | 43% | 1033.1 hPa | - | - | - | - |
| 1777486407 | 20.56° C | 43% | 1033.1 hPa | - | - | - | - |
| 1777484607 | 20.56° C | 43% | 1033.1 hPa | - | - | - | - |
| 1777482807 | 20.56° C | 42% | 1033.3 hPa | - | - | - | - |
| 1777481007 | 20.56° C | 42% | 1033.4 hPa | - | - | - | - |
| 1777479206 | 21.11° C | 42% | 1033.4 hPa | - | - | - | - |
| 1777477406 | 21.11° C | 42% | 1033.7 hPa | - | - | - | - |
| 1777475606 | 21.11° C | 41% | 1033.6 hPa | - | - | - | - |
| 1777473806 | 21.67° C | 40% | 1033.9 hPa | - | - | - | - |
| 1777472006 | 22.22° C | 40% | 1034 hPa | - | - | - | - |
| 1777470205 | 22.78° C | 41% | 1034.3 hPa | - | - | - | - |
| 1777468405 | 22.78° C | 42% | 1034.4 hPa | - | - | - | - |
| 1777466605 | 22.78° C | 43% | 1034.4 hPa | - | - | - | - |
| 1777464805 | 22.22° C | 44% | 1034.6 hPa | - | - | - | - |
| 1777463005 | 21.11° C | 44% | 1034.6 hPa | - | - | - | - |
| 1777461205 | 20.56° C | 45% | 1034.6 hPa | - | - | - | - |
| 1777459404 | 20° C | 46% | 1034.8 hPa | - | - | - | - |
| 1777457604 | 18.89° C | 46% | 1034.9 hPa | - | - | - | - |
| 1777455803 | 18.33° C | 46% | 1034.7 hPa | - | - | - | - |
| 1777454003 | 17.78° C | 47% | 1034.7 hPa | - | - | - | - |
* Rain since midnight (hover to see other rain measurements)
** Current wind speed in m/s (hover to see current wind gust speed)